Location: Beetenbrück
(52.8113°N, 9.5946°E)
Time: 17:31:47
(UTC+00:00)

NOSS 2-1 (D) - Pass Details

Date: 14 April 2026
Orbit: 373 x 1667 km, 63.3° (Epoch: 9 May)

Event Time Altitude Azimuth Distance (km) Brightness Sun altitude
Rises 18:59:41 0° 315° (NW) 2,248 8.1 -6.5°
Reaches altitude 10° 19:01:50 10° 331° (NNW) 1,428 6.4 -6.8°
Maximum altitude 19:04:25 24° 29° (NNE) 918 4.5 -7.2°
Drops below altitude 10° 19:07:21 10° 86° (E) 1,647 5.2 -7.6°
Enters shadow 19:07:57 - 90° (E) 1,873 5.5 -7.6°
